Orbital Elements at Epoch 2459200.5 (2020-Dec-17.0) TDB
Reference: JPL 19 (heliocentric ecliptic J2000)
Element | Value | Uncertainty (1-sigma) | Units |
e | .1834946934199047 | 5.1789e-08 | |
a | 3.170409021106066 | 2.8416e-08 | au |
q | 2.588655789762508 | 1.7875e-07 | au |
i | 23.81915433076921 | 5.4534e-06 | deg |
node | 162.9229571131068 | 1.3354e-05 | deg |
peri | 138.7680304136193 | 2.1995e-05 | deg |
M | 349.7355030386238 | 1.6475e-05 | deg |
tp | 2459259.290416803832 (2021-Feb-13.79041680) | 9.4632e-05 | TDB |
period | 2061.917902944337 5.65 | 2.7721e-05 7.59e-08 | d yr |
n | .174594730219828 | 2.3473e-09 | deg/d |
Q | 3.752162252449624 | 3.363e-08 | au |
|
| | Orbit Determination Parameters
Additional Information
|